• In Czech Republic
  • List of Countries
  • For 7 days
  • Water Temperature
  • Satellite Maps
  • Weather Map
  • Weather Widgets
  • user-avatar
    Login

    Hourly Weather Zabid

    Today, 23 June, Saturday

    Time Temperature Precipitation Wind Pressure Humidity
    00:00 +37°C° 0.1 mm 2 mps 746 mmHg 59%
    01:00 +37°C° 0 mm 2 mps 746 mmHg 60%
    02:00 +36°C° 0 mm 2 mps 746 mmHg 60%
    03:00 +36°C° 0 mm 2 mps 745 mmHg 63%
    04:00 +36°C° 0 mm 3 mps 745 mmHg 62%
    05:00 +36°C° 0 mm 3 mps 745 mmHg 61%
    06:00 +35°C° 0 mm 3 mps 746 mmHg 60%
    07:00 +37°C° 0 mm 3 mps 746 mmHg 52%
    08:00 +40°C° 0 mm 4 mps 746 mmHg 45%
    09:00 +40°C° 0 mm 3 mps 746 mmHg 38%
    10:00 +42°C° 0 mm 4 mps 746 mmHg 33%
    11:00 +45°C° 0 mm 5 mps 746 mmHg 29%
    12:00 +46°C° 0 mm 6 mps 746 mmHg 24%
    13:00 +45°C° 0 mm 6 mps 745 mmHg 26%
    14:00 +45°C° 0 mm 6 mps 745 mmHg 27%
    15:00 +43°C° 0 mm 5 mps 744 mmHg 29%
    16:00 +42°C° 0 mm 4 mps 744 mmHg 32%
    17:00 +41°C° 0 mm 4 mps 744 mmHg 35%
    18:00 +39°C° 0 mm 3 mps 744 mmHg 37%
    19:00 +39°C° 0 mm 2 mps 745 mmHg 40%
    20:00 +38°C° 0 mm 2 mps 745 mmHg 43%
    21:00 +38°C° 0 mm 2 mps 745 mmHg 46%
    22:00 +37°C° 0 mm 2 mps 745 mmHg 48%
    23:00 +37°C° 0 mm 2 mps 745 mmHg 50%

    Tomorrow, 24 June, Sunday

    Time Temperature Precipitation Wind Pressure Humidity
    00:00 +37°C° 0 mm 2 mps 745 mmHg 52%
    01:00 +36°C° 0 mm 2 mps 745 mmHg 53%
    02:00 +36°C° 0 mm 2 mps 744 mmHg 55%
    03:00 +35°C° 0 mm 2 mps 744 mmHg 57%
    04:00 +35°C° 0 mm 2 mps 744 mmHg 58%
    05:00 +35°C° 0 mm 2 mps 745 mmHg 59%
    06:00 +34°C° 0 mm 3 mps 745 mmHg 61%
    07:00 +36°C° 0 mm 2 mps 745 mmHg 54%
    08:00 +37°C° 0 mm 2 mps 746 mmHg 48%
    09:00 +39°C° 0 mm 2 mps 746 mmHg 42%
    10:00 +40°C° 0 mm 3 mps 746 mmHg 40%
    11:00 +42°C° 0 mm 4 mps 746 mmHg 38%
    12:00 +42°C° 0 mm 5 mps 746 mmHg 36%
    13:00 +42°C° 0.1 mm 4 mps 745 mmHg 36%
    14:00 +42°C° 0.1 mm 4 mps 745 mmHg 36%
    15:00 +42°C° 0.1 mm 4 mps 744 mmHg 36%
    16:00 +42°C° 0.5 mm 4 mps 744 mmHg 36%
    17:00 +41°C° 0.5 mm 4 mps 744 mmHg 36%
    18:00 +40°C° 0.5 mm 3 mps 745 mmHg 36%
    19:00 +39°C° 0.1 mm 3 mps 745 mmHg 37%
    20:00 +39°C° 0.1 mm 3 mps 746 mmHg 38%
    21:00 +38°C° 0.1 mm 2 mps 746 mmHg 39%
    22:00 +38°C° 0 mm 2 mps 746 mmHg 40%
    23:00 +38°C° 0 mm 2 mps 746 mmHg 41%

    Day after tomorrow, 25 June, Monday

    Time Temperature Precipitation Wind Pressure Humidity
    00:00 +38°C° 0 mm 2 mps 745 mmHg 42%
    01:00 +37°C° 0 mm 2 mps 745 mmHg 43%
    02:00 +37°C° 0 mm 2 mps 745 mmHg 44%
    03:00 +36°C° 0 mm 2 mps 744 mmHg 45%
    04:00 +36°C° 0 mm 2 mps 745 mmHg 48%
    05:00 +34°C° 0 mm 1 mps 745 mmHg 51%
    06:00 +34°C° 0 mm 1 mps 745 mmHg 55%
    07:00 +35°C° 0 mm 1 mps 745 mmHg 51%
    08:00 +36°C° 0 mm 1 mps 746 mmHg 48%
    09:00 +38°C° 0 mm 2 mps 746 mmHg 44%
    10:00 +39°C° 0 mm 3 mps 746 mmHg 41%
    11:00 +41°C° 0 mm 4 mps 746 mmHg 38%
    12:00 +42°C° 0 mm 5 mps 746 mmHg 35%
    13:00 +42°C° 0.4 mm 5 mps 746 mmHg 33%
    14:00 +42°C° 0.4 mm 5 mps 745 mmHg 32%
    15:00 +42°C° 0.4 mm 5 mps 745 mmHg 31%
    16:00 +41°C° 0.5 mm 4 mps 745 mmHg 32%
    17:00 +39°C° 0.5 mm 3 mps 745 mmHg 34%
    18:00 +38°C° 0.5 mm 2 mps 745 mmHg 36%
    19:00 +38°C° 0 mm 2 mps 746 mmHg 36%
    20:00 +38°C° 0 mm 2 mps 746 mmHg 36%
    21:00 +38°C° 0 mm 2 mps 746 mmHg 36%
    22:00 +38°C° 0 mm 2 mps 746 mmHg 36%
    23:00 +38°C° 0 mm 2 mps 746 mmHg 37%

    26 June, Tuesday

    Time Temperature Precipitation Wind Pressure Humidity
    00:00 +38°C° 0 mm 2 mps 746 mmHg 37%
    01:00 +36°C° 0 mm 1 mps 745 mmHg 39%
    02:00 +36°C° 0 mm 1 mps 745 mmHg 41%
    03:00 +35°C° 0 mm 1 mps 745 mmHg 43%
    04:00 +34°C° 0 mm 1 mps 745 mmHg 45%
    05:00 +34°C° 0 mm 1 mps 746 mmHg 47%
    06:00 +33°C° 0 mm 1 mps 746 mmHg 49%
    07:00 +34°C° 0 mm 1 mps 747 mmHg 45%
    08:00 +36°C° 0 mm 1 mps 747 mmHg 41%
    09:00 +37°C° 0 mm 1 mps 748 mmHg 38%
    10:00 +39°C° 0 mm 2 mps 747 mmHg 35%
    11:00 +40°C° 0 mm 3 mps 747 mmHg 32%
    12:00 +42°C° 0 mm 4 mps 747 mmHg 28%
    13:00 +42°C° 0 mm 4 mps 746 mmHg 28%
    14:00 +43°C° 0 mm 4 mps 745 mmHg 29%
    15:00 +43°C° 0 mm 4 mps 745 mmHg 29%
    16:00 +42°C° 0.1 mm 4 mps 745 mmHg 31%
    17:00 +40°C° 0.1 mm 3 mps 745 mmHg 33%
    18:00 +39°C° 0.1 mm 3 mps 745 mmHg 35%
    19:00 +38°C° 0.1 mm 3 mps 746 mmHg 37%
    20:00 +38°C° 0.1 mm 2 mps 746 mmHg 38%
    21:00 +38°C° 0.1 mm 2 mps 747 mmHg 40%
    22:00 +38°C° 0 mm 2 mps 747 mmHg 39%
    23:00 +38°C° 0 mm 2 mps 747 mmHg 39%

    27 June, Wednesday

    Time Temperature Precipitation Wind Pressure Humidity
    00:00 +38°C° 0 mm 2 mps 747 mmHg 39%
    01:00 +37°C° 0 mm 2 mps 746 mmHg 40%
    02:00 +37°C° 0 mm 2 mps 746 mmHg 42%
    03:00 +36°C° 0 mm 3 mps 745 mmHg 43%
    04:00 +36°C° 0 mm 2 mps 746 mmHg 44%
    05:00 +36°C° 0 mm 2 mps 746 mmHg 44%
    06:00 +34°C° 0 mm 1 mps 747 mmHg 44%
    07:00 +37°C° 0 mm 2 mps 747 mmHg 40%
    08:00 +38°C° 0 mm 2 mps 747 mmHg 37%
    09:00 +39°C° 0 mm 3 mps 747 mmHg 33%
    10:00 +40°C° 0 mm 3 mps 747 mmHg 34%
    11:00 +40°C° 0 mm 3 mps 747 mmHg 34%
    12:00 +41°C° 0 mm 4 mps 746 mmHg 34%
    13:00 +42°C° 0 mm 4 mps 746 mmHg 32%
    14:00 +42°C° 0 mm 4 mps 745 mmHg 31%
    15:00 +43°C° 0 mm 5 mps 744 mmHg 29%
    16:00 +42°C° 0.3 mm 5 mps 745 mmHg 30%
    17:00 +41°C° 0.3 mm 5 mps 745 mmHg 31%
    18:00 +40°C° 0.3 mm 5 mps 745 mmHg 33%
    19:00 +40°C° 0 mm 5 mps 745 mmHg 33%
    20:00 +40°C° 0 mm 4 mps 746 mmHg 34%
    21:00 +39°C° 0 mm 3 mps 746 mmHg 35%
    22:00 +39°C° 0 mm 3 mps 746 mmHg 36%
    23:00 +38°C° 0 mm 3 mps 746 mmHg 36%

    28 June, Thursday

    Time Temperature Precipitation Wind Pressure Humidity
    00:00 +38°C° 0 mm 3 mps 745 mmHg 37%
    01:00 +38°C° 0 mm 3 mps 745 mmHg 37%
    02:00 +37°C° 0 mm 3 mps 745 mmHg 38%
    03:00 +37°C° 0 mm 3 mps 744 mmHg 39%
    04:00 +37°C° 0 mm 3 mps 745 mmHg 38%
    05:00 +37°C° 0 mm 3 mps 745 mmHg 37%
    06:00 +37°C° 0 mm 3 mps 745 mmHg 37%
    07:00 +38°C° 0 mm 3 mps 745 mmHg 34%
    08:00 +40°C° 0 mm 4 mps 746 mmHg 31%
    09:00 +41°C° 0 mm 4 mps 746 mmHg 28%
    10:00 +42°C° 0 mm 4 mps 745 mmHg 26%
    11:00 +43°C° 0 mm 4 mps 745 mmHg 23%
    12:00 +45°C° 0 mm 5 mps 744 mmHg 21%
    13:00 +45°C° 0 mm 6 mps 744 mmHg 21%
    14:00 +46°C° 0 mm 6 mps 743 mmHg 21%
    15:00 +46°C° 0 mm 7 mps 743 mmHg 20%
    16:00 +45°C° 0 mm 6 mps 743 mmHg 21%
    17:00 +44°C° 0 mm 6 mps 743 mmHg 22%
    18:00 +42°C° 0 mm 5 mps 743 mmHg 22%
    19:00 +41°C° 0 mm 4 mps 744 mmHg 24%
    20:00 +39°C° 0 mm 3 mps 744 mmHg 25%
    21:00 +38°C° 0 mm 3 mps 744 mmHg 27%
    22:00 +38°C° 0 mm 2 mps 744 mmHg 29%
    23:00 +37°C° 0 mm 2 mps 744 mmHg 30%
    Show more